CZ-6A DEB, 54933

Orbit data source: Space-Track

CZ-6A DEB, 54933 is space debris in SSO originally from a launch on Fri, 11 Nov 2022 UTC launched from the Taiyaun Space Center, China (TSC). Debris objects in space refer to the collection of defunct objects orbiting the Earth. Examples of debris include non-operational satellites, rocket bodies, and fragments generated from explosions, collisions, or faulty payload assembly.

Loading next visibility...
Identifier
54933, 2022-151RW
Orbit
SSO
Country
Flag of CNCN / PRC
Related business
Manufacturer
SAST
Mission
Spacecraft
Bus & Motor
Unknown
Mass
Unknown
Launch date (UTC)
2022-11-11 (4 years ago)
Launch vehicle
Unknown
Launch site
Taiyaun Space Center, China (TSC)
Object type
Payload
Rocket body
Debris
Shape & HBR
Unknown shape, 0.1 m
Radar Cross Section
Medium (>0.1 m² and <1 m²)

Expand to show TLE details & history
Last TLE update: 12 hours ago

TLE from 12 hours ago
0 CZ-6A DEB
1 54933U 22151RW  26236.36218116  .00013752  00000-0  20712-2 0  9994
2 54933  99.0868  18.5878 0075626 120.4004 240.4703 14.72602195199938
Epoch: 2026-08-24T08:41Z
TLE epoch observation values (Epoch: 2026-08-24T08:41:32.452Z)
Latitude
0.00002°
Longitude
-84.44239°
Altitude
682.262 km
Speed
7.501 km/s
True Right ascension
01h 14m 21s
True Declination
0° 00' 00"
Sunlit
Object was in full shadow at epoch
Visualization orbit readout
Latitude
Unknown
Longitude
Unknown
Altitude
Unknown
Speed
Unknown
Apparent Right ascension
Unknown
Apparent Declination
Unknown
Sunlit
N/A
Visualization observer readout
Local Sidereal Time
12:10:04
Azimuth
Unknown
Elevation
Unknown
Doppler factor
Unknown
Orbital elements
Apogee altitude
703.031 km
Perigee altitude
596.73 km
Semi-major axis
7,028.017 km
Eccentricity
0.00756
Inclination
99.0868°
RAAN
18.5878°
Arg. of periapsis
120.4004°
True anomaly
239.71978°
Mean anomaly
240.4703°
Eccentric anomaly
240.09469°
Mean motion
3.68378 °/min
Orbital period
97.73 mins
BSTAR
0.0020712
Loading maneuver chart data...
Computing Atmospheric mass density...
Loading historical data...
Loading historical data...
Loading historical data...
Loading historical data...
Loading historical data...
Loading historical data...
Loading historical data...

Documentation

Showing up to 5 results
|